, AK

(GMT )
Kotzebue

Weather History for PAOT - January, 2014

Change the Weather History Date:

Friday, January 31, 2014

  Actual Average Record
Temperature  
Mean Temperature 26 °F -3 °F  
Max Temperature 31 °F 4 °F 37 °F (1994)
Min Temperature 21 °F -10 °F -47 °F (1993)
Degree Days  
Heating Degree Days 39 68  
Month to date heating degree days 1567 2097  
Since 1 July heating degree days 7267 8404  
Cooling Degree Days 0 0  
Month to date cooling degree days 0 0  
Year to date cooling degree days 0 0  
Moisture  
Dew Point 26 °F    
Average Humidity 0    
Maximum Humidity 0    
Minimum Humidity 0    
Precipitation  
Precipitation 0.03 in 0.02 in 0.22 in (1997)
Month to date precipitation 0.55 0.62  
Year to date precipitation 0.55 0.62  
Snow  
Snow 0.10 in 0.30 in 2.70 in (1997)
Month to date snowfall 4.9 9.1  
Since 1 July snowfall 23.8 38.0  
Snow Depth 7.00 in    
Sea Level Pressure  
Sea Level Pressure 30.12 in    
Wind  
Wind Speed 19 mph (ESE)    
Max Wind Speed 25 mph    
Max Gust Speed 30 mph    
Visibility 8 miles    
Events Rain , Snow    
T = Trace of Precipitation, MM = Missing Value Source: NWS Daily Summary

Daily Weather History Graph

Daily Weather History Graph

Search for Another Location

Airport or City:

Trip Planner

Search our weather history database for the weather conditions in past years. The results will help you decide how hot, cold, wet, or windy it might be!

Date:

Astronomy

Jan. 31, 2014 Rise Set
Actual Time 10:57 AM AKST 5:11 PM AKST
Civil Twilight 9:50 AM AKST 6:18 PM AKST
Nautical Twilight 8:43 AM AKST 7:25 PM AKST
Astronomical Twilight 7:41 AM AKST 8:27 PM AKST
Moon 10:16 AM AKST (1/31) 8:00 PM AKST (1/31)
Length of Visible Light 8h 28m
Length of Day
6h 13m
New Moon, 1% of the Moon is Illuminated
Jan 31
New Moon
Feb 6
First Quarter
Feb 14
Full
Feb 22
Last Quarter
Feb 28
New

Hourly Weather History & Observations

Time (AKST) Temp. Windchill Dew Point Humidity Pressure Visibility Wind Dir Wind Speed Gust Speed Precip Events Conditions
12:53 AM 21.9 °F 6.2 °F 18.0 °F 85% 30.05 in 10.0 mi ESE 21.9 mph - N/A   Scattered Clouds
1:53 AM 21.0 °F 6.6 °F 17.1 °F 85% 30.06 in 10.0 mi ESE 17.3 mph - N/A   Clear
2:53 AM 23.0 °F 7.2 °F 18.0 °F 81% 30.05 in 10.0 mi ESE 23.0 mph - N/A   Overcast
3:53 AM 24.1 °F 8.0 °F 19.0 °F 81% 30.04 in 10.0 mi ESE 25.3 mph - N/A   Overcast
4:53 AM 25.0 °F 9.9 °F 19.9 °F 81% 30.05 in 10.0 mi ESE 23.0 mph - N/A   Overcast
5:53 AM 26.1 °F 12.3 °F 21.0 °F 81% 30.05 in 10.0 mi ESE 19.6 mph - N/A   Overcast
6:28 AM 26.6 °F 13.1 °F 21.2 °F 80% 30.05 in 10.0 mi ESE 19.6 mph - 0.00 in Rain Light Freezing Rain
6:53 AM 26.1 °F 12.0 °F 21.9 °F 84% 30.06 in 4.0 mi ESE 20.7 mph - 0.00 in Rain Light Freezing Rain
7:00 AM 26.6 °F 12.4 °F 23.0 °F 86% 30.05 in 6.0 mi ESE 21.9 mph - 0.00 in Snow Light Snow
7:53 AM 26.1 °F 12.0 °F 21.9 °F 84% 30.06 in 5.0 mi ESE 20.7 mph - 0.00 in Snow Light Snow
8:25 AM 26.6 °F 12.7 °F 23.0 °F 86% 30.06 in 4.0 mi ESE 20.7 mph - 0.00 in Snow Light Snow
8:53 AM 27.0 °F 12.8 °F 24.1 °F 89% 30.06 in 4.0 mi ESE 21.9 mph - 0.00 in Snow Light Snow
9:53 AM 27.0 °F 12.8 °F 25.0 °F 92% 30.06 in 4.0 mi ESE 21.9 mph - 0.00 in Snow Light Snow
10:53 AM 28.0 °F 14.3 °F 26.1 °F 92% 30.07 in 10.0 mi ESE 21.9 mph - 0.00 in   Overcast
11:23 AM 28.4 °F 14.4 °F 26.6 °F 93% 30.08 in 10.0 mi ESE 23.0 mph - N/A   Overcast
11:53 AM 28.0 °F 14.3 °F 26.1 °F 92% 30.09 in 4.0 mi ESE 21.9 mph - 0.00 in Snow Light Snow
12:53 PM 28.9 °F 16.9 °F 27.0 °F 92% 30.11 in 5.0 mi SE 17.3 mph - 0.00 in Snow Light Snow
1:29 PM 30.2 °F 18.9 °F 26.6 °F 86% 30.11 in 10.0 mi SE 16.1 mph - 0.00 in Snow Light Snow
1:53 PM 30.0 °F 17.9 °F 28.0 °F 92% 30.12 in 3.0 mi ESE 18.4 mph - 0.01 in Snow Light Snow
2:25 PM 30.2 °F 17.8 °F 28.4 °F 93% 30.12 in 8.0 mi ESE 19.6 mph - 0.01 in   Mostly Cloudy
2:53 PM 30.0 °F 17.9 °F 28.9 °F 96% 30.13 in 8.0 mi ESE 18.4 mph - 0.02 in   Mostly Cloudy
3:39 PM 30.2 °F 18.5 °F 28.4 °F 93% 30.13 in 10.0 mi ESE 17.3 mph - N/A   Mostly Cloudy
3:53 PM 30.9 °F 19.8 °F 28.9 °F 92% 30.13 in 10.0 mi ESE 16.1 mph - N/A   Mostly Cloudy
4:53 PM 30.9 °F 19.1 °F 28.9 °F 92% 30.14 in 10.0 mi ESE 18.4 mph - N/A   Mostly Cloudy
5:25 PM 30.2 °F 18.1 °F 28.4 °F 93% 30.15 in 10.0 mi ESE 18.4 mph - N/A   Mostly Cloudy
5:53 PM 30.9 °F 19.1 °F 30.0 °F 96% 30.15 in 10.0 mi ESE 18.4 mph - N/A   Mostly Cloudy
6:08 PM 30.2 °F 18.5 °F 30.2 °F 100% 30.15 in 10.0 mi ESE 17.3 mph - N/A   Mostly Cloudy
6:53 PM 30.9 °F 19.4 °F 28.9 °F 92% 30.17 in 10.0 mi SE 17.3 mph - N/A   Overcast
7:53 PM 30.9 °F 19.8 °F 28.9 °F 92% 30.19 in 10.0 mi SE 16.1 mph - N/A   Overcast
8:00 PM 30.2 °F 18.9 °F 28.4 °F 93% 30.19 in 10.0 mi ESE 16.1 mph - N/A   Overcast
8:53 PM 30.0 °F 18.7 °F 28.0 °F 92% 30.20 in 10.0 mi ESE 16.1 mph - N/A   Overcast
9:00 PM 30.2 °F 18.9 °F 28.4 °F 93% 30.20 in 10.0 mi ESE 16.1 mph - N/A   Overcast
9:53 PM 30.9 °F 19.4 °F 28.9 °F 92% 30.21 in 10.0 mi SE 17.3 mph - N/A   Overcast
10:22 PM 30.2 °F 19.3 °F 28.4 °F 93% 30.22 in 10.0 mi SE 15.0 mph - N/A   Overcast
10:31 PM 30.2 °F 19.3 °F 28.4 °F 93% 30.22 in 10.0 mi SE 15.0 mph - N/A   Overcast
10:53 PM 30.0 °F 19.1 °F 28.9 °F 96% 30.23 in 10.0 mi SE 15.0 mph - N/A   Overcast
11:44 PM 30.2 °F 19.3 °F 28.4 °F 93% 30.24 in 10.0 mi ESE 15.0 mph - N/A   Mostly Cloudy
11:53 PM 30.0 °F 20.0 °F 28.0 °F 92% 30.25 in 10.0 mi SE 12.7 mph - N/A   Mostly Cloudy